Flag for Pakistan Weather past 2 weeks in Lahore, Pakistan

Now
95 °F

Scattered clouds.


Feels Like: 101 °F
Forecast: 79 / 99 °F
Wind: 5 mph from Northeast

Location: Lahore Airport

Current Time: Aug 30, 2014 at 3:18:36 PM

Latest Report: Aug 30, 2014 at 2:59 PM


Visibility: 3 mi

Pressure: 29.62 "Hg

Humidity: 44%

Dew point: 70 °F

Location of LahoreLocation

Historic Weather in Lahore — Graph

°F

Lahore temperature yesterday

Maximum temperature yesterday: 95 °F (at 11:59 AM)
Minimum temperature yesterday: 79 °F (at 3:55 AM)
Average temperature yesterday: 88 °F

Past Weeks' High & Low Weather Summary

 TemperatureHumidityPressure
High104 °F (Aug 22, 2:55 PM)89% (Aug 19, 4:55 AM)29.80 "Hg (Aug 19, 4:55 AM)
Low77 °F (Aug 16, 3:00 AM)31% (Aug 22, 2:55 PM)29.45 "Hg (Aug 15, 3:00 PM)
Average89 °F57%29.66 "Hg
* Reported Aug 15 1:29 PM — Aug 30 1:55 PM, Lahore, Weather by CustomWeather, © 2014

Note: Actual official high and low records may vary slightly from our data, if they occured in-between our weather recording intervals... More about our weather records

Advertising

Lahore weather history for previous 24 hours

 ConditionsComfort  
Time TempWeatherWind HumidityBarometerVisibility
1:55 PM
Aug 30
95 °FScattered clouds.6 mph47%29.65 "Hg3 mi
1:29 PM95 °FScattered clouds.7 mph47%29.65 "Hg3 mi
12:59 PM95 °FScattered clouds.7 mph47%29.68 "Hg3 mi
12:29 PM95 °FScattered clouds.3 mph47%29.68 "Hg3 mi
11:59 AM93 °FScattered clouds.6 mph53%29.71 "Hg2 mi
11:29 AM93 °FScattered clouds.7 mph53%29.71 "Hg2 mi
10:59 AM93 °FScattered clouds.5 mph53%29.71 "Hg2 mi
10:29 AM91 °FScattered clouds.No wind56%29.74 "Hg2 mi
9:59 AM91 °FPassing clouds.3 mph56%29.74 "Hg3 mi
9:29 AM90 °FPassing clouds.5 mph59%29.74 "Hg3 mi
8:55 AM88 °FPassing clouds.No wind62%29.74 "Hg3 mi
8:25 AM86 °FClear.3 mph66%29.74 "Hg2 mi
7:55 AM84 °FClear.No wind70%29.74 "Hg2 mi
7:25 AM84 °FClear.No wind70%29.74 "Hg2 mi
6:55 AM82 °FClear.3 mph74%29.74 "Hg2 mi
6:25 AM82 °FPassing clouds.No wind74%29.71 "Hg2 mi
5:55 AM81 °FPassing clouds.No wind79%29.71 "Hg2 mi
5:25 AM81 °FPassing clouds.No wind79%29.71 "Hg2 mi
5:00 AM81 °FClear.No wind79%29.68 "Hg2 mi
4:25 AM81 °FClear.No wind79%29.68 "Hg2 mi
3:55 AM81 °FClear.No wind79%29.68 "Hg2 mi
3:25 AM81 °FClear.3 mph79%29.68 "Hg2 mi
2:55 AM82 °FClear.No wind70%29.71 "Hg2 mi
2:25 AM82 °FClear.No wind70%29.68 "Hg2 mi
1:25 AM82 °FClear.6 mph70%29.68 "Hg2 mi
11:25 PM
Aug 29
86 °FClear.3 mph59%29.68 "Hg3 mi
10:55 PM86 °FClear.3 mph59%29.68 "Hg2 mi
10:25 PM86 °FClear.No wind59%29.68 "Hg3 mi
9:55 PM86 °FClear.No wind59%29.68 "Hg3 mi
8:00 PM88 °FClear.5 mph52%29.65 "Hg3 mi
7:30 PM90 °FPassing clouds.3 mphN/A29.65 "Hg3 mi
7:00 PM90 °FPassing clouds.6 mph46%29.65 "Hg3 mi
6:25 PM91 °FScattered clouds.6 mph44%29.65 "Hg3 mi
6:00 PM91 °FScattered clouds.5 mph46%29.65 "Hg3 mi
5:25 PM93 °FScattered clouds.8 mph41%29.65 "Hg3 mi
5:00 PM93 °FScattered clouds.7 mph41%29.65 "Hg3 mi
4:30 PM93 °FScattered clouds.8 mph41%29.65 "Hg3 mi
4:00 PM93 °FScattered clouds.8 mph41%29.65 "Hg3 mi
3:25 PM93 °FScattered clouds.8 mph41%29.68 "Hg3 mi
3:00 PM93 °FScattered clouds.8 mph41%29.68 "Hg3 mi
Weather by CustomWeather, © 2014

See weather overviewHow to use our weather pages